Time,TemperatureF,DewpointF,PressureIn,WindDirection,WindDirectionDegrees,WindSpeedMPH,WindSpeedGustMPH,Humidity,HourlyPrecipIn,Conditions,Clouds,dailyrainin,SolarRadiationWatts/m^2,SoftwareType,DateUTC
2013-05-26 00:14:00,42.8,42.0,29.76,SSE,155,0.0,3.0,96,0.00,,,0.00,0,weatherlink.com 1.10,2013-05-25 22:14:00,
2013-05-26 00:29:00,43.2,42.0,29.76,WSW,257,0.0,2.0,96,0.00,,,0.00,0,weatherlink.com 1.10,2013-05-25 22:29:00,
2013-05-26 00:44:00,43.2,42.0,29.76,SW,231,0.0,2.0,95,0.00,,,0.00,0,weatherlink.com 1.10,2013-05-25 22:44:00,
2013-05-26 00:59:00,43.3,42.0,29.76,SW,217,0.0,2.0,96,0.00,,,0.00,0,weatherlink.com 1.10,2013-05-25 22:59:00,
2013-05-26 01:14:00,43.5,43.0,29.75,SW,233,0.0,2.0,96,0.00,,,0.00,0,weatherlink.com 1.10,2013-05-25 23:14:00,
2013-05-26 01:29:00,43.5,42.0,29.75,SW,217,0.0,1.0,95,0.00,,,0.00,0,weatherlink.com 1.10,2013-05-25 23:29:00,
2013-05-26 01:44:00,43.3,42.0,29.75,SW,219,1.0,3.0,95,0.00,,,0.00,0,weatherlink.com 1.10,2013-05-25 23:44:00,
2013-05-26 01:59:00,43.1,42.0,29.75,SSW,200,0.0,2.0,95,0.00,,,0.00,0,weatherlink.com 1.10,2013-05-25 23:59:00,
2013-05-26 02:14:00,42.8,42.0,29.75,SW,228,0.0,1.0,95,0.00,,,0.00,0,weatherlink.com 1.10,2013-05-26 00:14:00,
2013-05-26 02:29:00,42.9,42.0,29.74,WSW,252,0.0,1.0,96,0.00,,,0.00,0,weatherlink.com 1.10,2013-05-26 00:29:00,
2013-05-26 02:44:00,43.2,42.0,29.74,SSW,209,0.0,3.0,96,0.00,,,0.00,0,weatherlink.com 1.10,2013-05-26 00:44:00,
2013-05-26 02:59:00,43.8,43.0,29.74,SSW,198,1.0,3.0,96,0.00,,,0.00,0,weatherlink.com 1.10,2013-05-26 00:59:00,
2013-05-26 03:14:00,44.2,43.0,29.74,West,267,1.0,3.0,95,0.00,,,0.00,0,weatherlink.com 1.10,2013-05-26 01:14:00,
2013-05-26 03:29:00,44.1,43.0,29.73,WSW,252,0.0,3.0,94,0.00,,,0.00,0,weatherlink.com 1.10,2013-05-26 01:29:00,
2013-05-26 03:44:00,43.7,42.0,29.73,SSW,210,0.0,3.0,93,0.00,,,0.00,0,weatherlink.com 1.10,2013-05-26 01:44:00,
2013-05-26 03:59:00,43.5,42.0,29.73,WSW,239,1.0,2.0,93,0.00,,,0.00,0,weatherlink.com 1.10,2013-05-26 01:59:00,
2013-05-26 04:14:00,43.2,41.0,29.72,SW,216,1.0,3.0,93,0.00,,,0.00,0,weatherlink.com 1.10,2013-05-26 02:14:00,
2013-05-26 04:29:00,42.6,41.0,29.72,WSW,250,0.0,2.0,93,0.00,,,0.00,0,weatherlink.com 1.10,2013-05-26 02:29:00,
2013-05-26 04:44:00,42.3,41.0,29.71,SSE,165,0.0,2.0,94,0.00,,,0.00,0,weatherlink.com 1.10,2013-05-26 02:44:00,
2013-05-26 04:59:00,42.1,41.0,29.71,South,190,0.0,2.0,94,0.00,,,0.00,0,weatherlink.com 1.10,2013-05-26 02:59:00,
2013-05-26 05:14:00,41.6,40.0,29.70,SW,219,0.0,2.0,94,0.00,,,0.00,0,weatherlink.com 1.10,2013-05-26 03:14:00,
2013-05-26 05:29:00,41.5,40.0,29.70,SE,142,0.0,1.0,94,0.00,,,0.00,11,weatherlink.com 1.10,2013-05-26 03:29:00,
2013-05-26 05:44:00,41.7,40.0,29.70,West,261,1.0,3.0,94,0.00,,,0.00,18,weatherlink.com 1.10,2013-05-26 03:44:00,
2013-05-26 05:59:00,42.0,40.0,29.70,WSW,240,0.0,5.0,94,0.00,,,0.00,21,weatherlink.com 1.10,2013-05-26 03:59:00,
2013-05-26 06:14:00,42.4,41.0,29.70,SW,227,3.0,5.0,94,0.00,,,0.00,42,weatherlink.com 1.10,2013-05-26 04:14:00,
2013-05-26 06:29:00,43.3,41.0,29.69,South,175,1.0,6.0,92,0.00,,,0.00,42,weatherlink.com 1.10,2013-05-26 04:29:00,
2013-05-26 06:44:00,44.2,42.0,29.69,SE,138,2.0,7.0,91,0.00,,,0.00,58,weatherlink.com 1.10,2013-05-26 04:44:00,
2013-05-26 06:59:00,44.9,42.0,29.69,SW,220,5.0,7.0,90,0.00,,,0.00,83,weatherlink.com 1.10,2013-05-26 04:59:00,
2013-05-26 07:15:00,45.8,42.0,29.68,SE,132,5.0,11.0,87,0.00,,,0.00,292,weatherlink.com 1.10,2013-05-26 05:15:00,
2013-05-26 07:30:00,46.5,43.0,29.68,South,189,2.0,14.0,86,0.00,,,0.00,227,weatherlink.com 1.10,2013-05-26 05:30:00,
2013-05-26 07:45:00,47.5,43.0,29.68,WNW,286,4.0,12.0,83,0.01,,,0.01,250,weatherlink.com 1.10,2013-05-26 05:45:00,
2013-05-26 08:00:00,47.8,43.0,29.68,SSW,211,5.0,10.0,82,0.01,,,0.01,221,weatherlink.com 1.10,2013-05-26 06:00:00,
2013-05-26 08:15:00,47.8,42.0,29.68,ESE,123,8.0,12.0,81,0.01,,,0.01,197,weatherlink.com 1.10,2013-05-26 06:15:00,
2013-05-26 08:30:00,47.3,42.0,29.68,SE,142,5.0,11.0,81,0.01,,,0.01,162,weatherlink.com 1.10,2013-05-26 06:30:00,
2013-05-26 08:45:00,47.3,42.0,29.68,South,190,5.0,12.0,82,0.00,,,0.01,209,weatherlink.com 1.10,2013-05-26 06:45:00,
2013-05-26 09:00:00,47.1,43.0,29.68,WSW,248,3.0,13.0,85,0.00,,,0.01,209,weatherlink.com 1.10,2013-05-26 07:00:00,
2013-05-26 09:15:00,46.5,43.0,29.68,South,184,5.0,10.0,87,0.00,,,0.01,174,weatherlink.com 1.10,2013-05-26 07:15:00,
2013-05-26 09:30:00,46.7,43.0,29.68,WSW,237,2.0,11.0,86,0.00,,,0.01,241,weatherlink.com 1.10,2013-05-26 07:30:00,
2013-05-26 09:45:00,46.8,43.0,29.68,South,171,4.0,8.0,87,0.00,,,0.01,185,weatherlink.com 1.10,2013-05-26 07:45:00,
2013-05-26 10:00:00,46.2,43.0,29.69,WSW,250,8.0,8.0,88,0.01,,,0.02,192,weatherlink.com 1.10,2013-05-26 08:00:00,
2013-05-26 10:15:00,46.1,43.0,29.69,WSW,250,5.0,9.0,89,0.02,,,0.02,287,weatherlink.com 1.10,2013-05-26 08:15:00,
2013-05-26 10:30:00,46.0,43.0,29.69,SSE,148,1.0,12.0,88,0.02,,,0.02,229,weatherlink.com 1.10,2013-05-26 08:30:00,
2013-05-26 10:45:00,46.1,43.0,29.69,SE,134,3.0,13.0,89,0.02,,,0.03,345,weatherlink.com 1.10,2013-05-26 08:45:00,
2013-05-26 11:00:00,46.1,43.0,29.69,SW,217,2.0,14.0,87,0.02,,,0.03,338,weatherlink.com 1.10,2013-05-26 09:00:00,
2013-05-26 11:15:00,47.0,44.0,29.69,SW,234,2.0,12.0,88,0.01,,,0.03,338,weatherlink.com 1.10,2013-05-26 09:15:00,
2013-05-26 11:30:00,46.8,44.0,29.69,SW,227,4.0,10.0,88,0.01,,,0.03,278,weatherlink.com 1.10,2013-05-26 09:30:00,
2013-05-26 11:45:00,46.3,44.0,29.69,SSW,213,4.0,10.0,90,0.01,,,0.04,338,weatherlink.com 1.10,2013-05-26 09:45:00,
2013-05-26 12:00:00,46.2,43.0,29.69,SW,227,3.0,10.0,89,0.01,,,0.04,269,weatherlink.com 1.10,2013-05-26 10:00:00,
2013-05-26 12:15:00,46.2,43.0,29.69,SW,231,3.0,11.0,89,0.02,,,0.05,151,weatherlink.com 1.10,2013-05-26 10:15:00,
2013-05-26 12:30:00,46.1,44.0,29.69,SSW,193,1.0,8.0,91,0.02,,,0.06,327,weatherlink.com 1.10,2013-05-26 10:30:00,
2013-05-26 12:45:00,46.5,44.0,29.69,SW,234,1.0,8.0,90,0.02,,,0.06,329,weatherlink.com 1.10,2013-05-26 10:45:00,
2013-05-26 13:00:00,46.9,44.0,29.69,SSE,167,4.0,7.0,89,0.02,,,0.06,274,weatherlink.com 1.10,2013-05-26 11:00:00,
2013-05-26 13:15:00,46.4,44.0,29.69,SW,227,3.0,9.0,91,0.02,,,0.07,401,weatherlink.com 1.10,2013-05-26 11:15:00,
2013-05-26 13:30:00,46.1,44.0,29.69,NNW,337,2.0,10.0,91,0.04,,,0.09,239,weatherlink.com 1.10,2013-05-26 11:30:00,
2013-05-26 13:45:00,45.8,43.0,29.69,SSW,206,4.0,12.0,91,0.05,,,0.10,406,weatherlink.com 1.10,2013-05-26 11:45:00,
2013-05-26 14:00:00,46.9,44.0,29.69,West,280,2.0,16.0,88,0.04,,,0.10,443,weatherlink.com 1.10,2013-05-26 12:00:00,
2013-05-26 14:15:00,47.0,44.0,29.69,West,260,3.0,10.0,90,0.02,,,0.10,297,weatherlink.com 1.10,2013-05-26 12:15:00,
2013-05-26 14:30:00,46.9,44.0,29.69,SSE,159,0.0,9.0,88,0.02,,,0.11,255,weatherlink.com 1.10,2013-05-26 12:30:00,
2013-05-26 14:45:00,46.3,44.0,29.69,SW,234,5.0,9.0,92,0.02,,,0.12,420,weatherlink.com 1.10,2013-05-26 12:45:00,
2013-05-26 15:00:00,46.8,44.0,29.68,WSW,258,1.0,13.0,90,0.02,,,0.12,338,weatherlink.com 1.10,2013-05-26 13:00:00,
2013-05-26 15:15:00,46.5,43.0,29.68,SE,145,2.0,8.0,87,0.02,,,0.12,236,weatherlink.com 1.10,2013-05-26 13:15:00,
2013-05-26 15:30:00,47.2,44.0,29.69,South,169,0.0,10.0,87,0.01,,,0.12,267,weatherlink.com 1.10,2013-05-26 13:30:00,
2013-05-26 15:45:00,46.7,43.0,29.68,WSW,254,2.0,9.0,88,0.01,,,0.13,272,weatherlink.com 1.10,2013-05-26 13:45:00,
2013-05-26 16:00:00,46.0,43.0,29.68,West,265,1.0,10.0,88,0.01,,,0.13,130,weatherlink.com 1.10,2013-05-26 14:00:00,
2013-05-26 16:15:00,46.0,43.0,29.68,SW,217,6.0,9.0,88,0.01,,,0.13,84,weatherlink.com 1.10,2013-05-26 14:15:00,
2013-05-26 16:30:00,45.5,42.0,29.68,West,269,3.0,11.0,86,0.01,,,0.13,114,weatherlink.com 1.10,2013-05-26 14:30:00,
2013-05-26 16:45:00,45.6,42.0,29.68,SW,217,3.0,9.0,86,0.00,,,0.13,102,weatherlink.com 1.10,2013-05-26 14:45:00,
2013-05-26 17:00:00,45.6,41.0,29.68,SW,219,6.0,10.0,85,0.00,,,0.13,179,weatherlink.com 1.10,2013-05-26 15:00:00,
2013-05-26 17:15:00,45.6,41.0,29.68,SW,227,2.0,10.0,85,0.00,,,0.13,199,weatherlink.com 1.10,2013-05-26 15:15:00,
2013-05-26 17:30:00,45.5,42.0,29.68,SW,229,5.0,10.0,86,0.00,,,0.13,167,weatherlink.com 1.10,2013-05-26 15:30:00,
2013-05-26 17:45:00,45.1,41.0,29.68,SSW,211,4.0,10.0,86,0.00,,,0.13,95,weatherlink.com 1.10,2013-05-26 15:45:00,
2013-05-26 18:00:00,45.0,42.0,29.68,SSE,161,2.0,7.0,88,0.00,,,0.13,60,weatherlink.com 1.10,2013-05-26 16:00:00,
2013-05-26 18:15:00,44.8,42.0,29.68,WNW,291,3.0,8.0,90,0.01,,,0.13,74,weatherlink.com 1.10,2013-05-26 16:15:00,
2013-05-26 18:30:00,44.7,42.0,29.68,South,175,3.0,7.0,91,0.02,,,0.14,65,weatherlink.com 1.10,2013-05-26 16:30:00,
2013-05-26 18:45:00,44.5,42.0,29.68,WSW,247,4.0,10.0,90,0.02,,,0.14,46,weatherlink.com 1.10,2013-05-26 16:45:00,
2013-05-26 19:01:00,44.2,42.0,29.67,SSE,155,1.0,7.0,91,0.02,,,0.14,42,weatherlink.com 1.10,2013-05-26 17:01:00,
2013-05-26 19:15:00,44.3,42.0,29.67,SW,234,4.0,7.0,91,0.01,,,0.14,33,weatherlink.com 1.10,2013-05-26 17:15:00,
2013-05-26 19:30:00,44.0,41.0,29.67,SW,216,3.0,12.0,90,0.00,,,0.14,28,weatherlink.com 1.10,2013-05-26 17:30:00,
2013-05-26 19:46:00,43.7,41.0,29.67,SE,125,0.0,6.0,91,0.01,,,0.15,16,weatherlink.com 1.10,2013-05-26 17:46:00,
2013-05-26 20:01:00,43.6,42.0,29.67,SW,214,0.0,8.0,92,0.01,,,0.15,16,weatherlink.com 1.10,2013-05-26 18:01:00,
2013-05-26 20:16:00,43.4,41.0,29.67,WSW,258,2.0,8.0,91,0.02,,,0.16,18,weatherlink.com 1.10,2013-05-26 18:16:00,
2013-05-26 20:31:00,43.1,41.0,29.67,SW,218,2.0,8.0,93,0.03,,,0.17,19,weatherlink.com 1.10,2013-05-26 18:31:00,
2013-05-26 20:46:00,42.9,41.0,29.66,WSW,237,2.0,6.0,93,0.04,,,0.19,0,weatherlink.com 1.10,2013-05-26 18:46:00,
2013-05-26 21:01:00,42.8,41.0,29.66,WSW,247,2.0,5.0,94,0.04,,,0.19,0,weatherlink.com 1.10,2013-05-26 19:01:00,
2013-05-26 21:16:00,42.7,41.0,29.66,SW,225,0.0,5.0,95,0.03,,,0.20,0,weatherlink.com 1.10,2013-05-26 19:16:00,
2013-05-26 21:31:00,42.6,41.0,29.66,SSE,162,0.0,4.0,95,0.02,,,0.20,0,weatherlink.com 1.10,2013-05-26 19:31:00,
2013-05-26 21:46:00,42.5,41.0,29.66,SSW,193,0.0,7.0,94,0.02,,,0.20,0,weatherlink.com 1.10,2013-05-26 19:46:00,
2013-05-26 22:01:00,42.4,41.0,29.66,SE,141,1.0,6.0,94,0.03,,,0.22,0,weatherlink.com 1.10,2013-05-26 20:01:00,
2013-05-26 22:16:00,42.3,41.0,29.66,South,190,0.0,4.0,94,0.02,,,0.22,0,weatherlink.com 1.10,2013-05-26 20:16:00,
2013-05-26 22:31:00,42.3,41.0,29.66,SW,216,1.0,3.0,94,0.02,,,0.22,0,weatherlink.com 1.10,2013-05-26 20:31:00,
2013-05-26 22:46:00,42.4,41.0,29.66,SSE,160,2.0,6.0,95,0.03,,,0.24,0,weatherlink.com 1.10,2013-05-26 20:46:00,
2013-05-26 23:01:00,42.4,41.0,29.66,SSE,160,2.0,4.0,95,0.02,,,0.24,0,weatherlink.com 1.10,2013-05-26 21:01:00,
2013-05-26 23:16:00,42.4,41.0,29.65,SW,235,2.0,7.0,95,0.02,,,0.24,0,weatherlink.com 1.10,2013-05-26 21:16:00,
2013-05-26 23:31:00,42.5,41.0,29.65,South,179,1.0,4.0,95,0.02,,,0.25,0,weatherlink.com 1.10,2013-05-26 21:31:00,
2013-05-26 23:46:00,42.5,41.0,29.65,SW,221,2.0,6.0,95,0.02,,,0.26,0,weatherlink.com 1.10,2013-05-26 21:46:00,